Location: Unspecified
(0.0000°N, 0.0000°E)
Time: 07:09:53
(UTC+00:00)

Courier 1B - Pass Details

Date: 24 September 2023
Orbit: 962 x 1208 km, 28.3° (Epoch: 06 December)

Event Time Altitude Azimuth Distance (km) Brightness Sun altitude
Rises 18:23:10 0° 330° (NNW) 4,023 11.2 -7.8°
Reaches altitude 10° 18:29:20 10° 6° (N) 2,995 10.0 -9.3°
Maximum altitude 18:30:42 11° 17° (NNE) 2,938 9.8 -9.7°
Drops below altitude 10° 18:32:04 10° 28° (NNE) 2,961 9.7 -10.0°
Enters shadow 18:35:27 - 53° (NE) 3,342 9.8 -10.9°
Sets 18:37:56 0° 66° (ENE) 3,841 - -11.5°
